Year,Month,Day,Hour,Minute,Value (Times are PST for temperature in C)
2013,07,27,00,00,13.40
2013,07,27,00,01,13.40
2013,07,27,00,02,13.40
2013,07,27,00,03,13.40
2013,07,27,00,04,13.40
2013,07,27,00,05,13.30
2013,07,27,00,06,13.30
2013,07,27,00,07,13.30
2013,07,27,00,08,13.30
2013,07,27,00,09,13.30
2013,07,27,00,10,13.30
2013,07,27,00,11,13.30
2013,07,27,00,12,13.20
2013,07,27,00,13,13.20
2013,07,27,00,14,13.20
2013,07,27,00,15,13.20
2013,07,27,00,16,13.20
2013,07,27,00,17,13.10
2013,07,27,00,18,13.10
2013,07,27,00,19,13.10
2013,07,27,00,20,13.10
2013,07,27,00,21,13.10
2013,07,27,00,22,13.10
2013,07,27,00,23,13.10
2013,07,27,00,24,13.10
2013,07,27,00,25,13.10
2013,07,27,00,26,13.10
2013,07,27,00,27,13.10
2013,07,27,00,28,13.10
2013,07,27,00,29,13.10
2013,07,27,00,30,13.10
2013,07,27,00,31,13.10
2013,07,27,00,32,13.10
2013,07,27,00,33,13.10
2013,07,27,00,34,13.00
2013,07,27,00,35,13.10
2013,07,27,00,36,13.10
2013,07,27,00,37,13.10
2013,07,27,00,38,13.10
2013,07,27,00,39,13.10
2013,07,27,00,40,13.10
2013,07,27,00,41,13.10
2013,07,27,00,42,13.10
2013,07,27,00,43,13.10
2013,07,27,00,44,13.10
2013,07,27,00,45,13.10
2013,07,27,00,46,13.10
2013,07,27,00,47,13.10
2013,07,27,00,48,13.10
2013,07,27,00,49,13.00
2013,07,27,00,50,13.00
2013,07,27,00,51,12.90
2013,07,27,00,52,12.90
2013,07,27,00,53,12.90
2013,07,27,00,54,12.80
2013,07,27,00,55,12.80
2013,07,27,00,56,12.80
2013,07,27,00,57,12.80
2013,07,27,00,58,12.80
2013,07,27,00,59,12.70
2013,07,27,01,00,12.70
2013,07,27,01,01,12.70
2013,07,27,01,02,12.70
2013,07,27,01,03,12.70
2013,07,27,01,04,12.70
2013,07,27,01,05,12.70
2013,07,27,01,06,12.70
2013,07,27,01,07,12.70
2013,07,27,01,08,12.70
2013,07,27,01,09,12.70
2013,07,27,01,10,12.70
2013,07,27,01,11,12.70
2013,07,27,01,12,12.60
2013,07,27,01,13,12.60
2013,07,27,01,14,12.60
2013,07,27,01,15,12.60
2013,07,27,01,16,12.60
2013,07,27,01,17,12.60
2013,07,27,01,18,12.50
2013,07,27,01,19,12.50
2013,07,27,01,20,12.50
2013,07,27,01,21,12.40
2013,07,27,01,22,12.40
2013,07,27,01,23,12.40
2013,07,27,01,24,12.40
2013,07,27,01,25,12.40
2013,07,27,01,26,12.40
2013,07,27,01,27,12.40
2013,07,27,01,28,12.40
2013,07,27,01,29,12.40
2013,07,27,01,30,12.40
2013,07,27,01,31,12.30
2013,07,27,01,32,12.30
2013,07,27,01,33,12.30
2013,07,27,01,34,12.30
2013,07,27,01,35,12.30
2013,07,27,01,36,12.30
2013,07,27,01,37,12.30
2013,07,27,01,38,12.30
2013,07,27,01,39,12.30
2013,07,27,01,40,12.30
2013,07,27,01,41,12.30
2013,07,27,01,42,12.30
2013,07,27,01,43,12.30
2013,07,27,01,44,12.30
2013,07,27,01,45,12.30
2013,07,27,01,46,12.20
2013,07,27,01,47,12.20
2013,07,27,01,48,12.20
2013,07,27,01,49,12.20
2013,07,27,01,50,12.20
2013,07,27,01,51,12.20
2013,07,27,01,52,12.10
2013,07,27,01,53,12.10
2013,07,27,01,54,12.10
2013,07,27,01,55,12.10
2013,07,27,01,56,12.10
2013,07,27,01,57,12.10
2013,07,27,01,58,12.10
2013,07,27,01,59,12.10
2013,07,27,02,00,12.00
2013,07,27,02,01,12.00
2013,07,27,02,02,12.00
2013,07,27,02,03,12.00
2013,07,27,02,04,12.00
2013,07,27,02,05,12.00
2013,07,27,02,06,12.00
2013,07,27,02,07,12.00
2013,07,27,02,08,12.00
2013,07,27,02,09,12.00
2013,07,27,02,10,12.00
2013,07,27,02,11,12.00
2013,07,27,02,12,12.10
2013,07,27,02,13,12.10
2013,07,27,02,14,12.10
2013,07,27,02,15,12.10
2013,07,27,02,16,12.10
2013,07,27,02,17,12.10
2013,07,27,02,18,12.10
2013,07,27,02,19,12.10
2013,07,27,02,20,12.10
2013,07,27,02,21,12.10
2013,07,27,02,22,12.10
2013,07,27,02,23,12.10
2013,07,27,02,24,12.10
2013,07,27,02,25,12.10
2013,07,27,02,26,12.10
2013,07,27,02,27,12.10
2013,07,27,02,28,12.10
2013,07,27,02,29,12.10
2013,07,27,02,30,12.10
2013,07,27,02,31,12.10
2013,07,27,02,32,12.00
2013,07,27,02,33,12.00
2013,07,27,02,34,12.00
2013,07,27,02,35,12.00
2013,07,27,02,36,11.90
2013,07,27,02,37,11.90
2013,07,27,02,38,11.90
2013,07,27,02,39,12.00
2013,07,27,02,40,12.00
2013,07,27,02,41,12.00
2013,07,27,02,42,12.00
2013,07,27,02,43,12.00
2013,07,27,02,44,12.00
2013,07,27,02,45,12.00
2013,07,27,02,46,12.00
2013,07,27,02,47,12.00
2013,07,27,02,48,12.00
2013,07,27,02,49,12.00
2013,07,27,02,50,11.90
2013,07,27,02,51,11.90
2013,07,27,02,52,11.90
2013,07,27,02,53,11.90
2013,07,27,02,54,11.90
2013,07,27,02,55,11.90
2013,07,27,02,56,11.80
2013,07,27,02,57,11.80
2013,07,27,02,58,11.90
2013,07,27,02,59,11.90
2013,07,27,03,00,11.90
2013,07,27,03,01,11.90
2013,07,27,03,02,11.90
2013,07,27,03,03,11.90
2013,07,27,03,04,11.90
2013,07,27,03,05,11.90
2013,07,27,03,06,11.90
2013,07,27,03,07,11.80
2013,07,27,03,08,11.80
2013,07,27,03,09,11.80
2013,07,27,03,10,11.80
2013,07,27,03,11,11.80
2013,07,27,03,12,11.80
2013,07,27,03,13,11.80
2013,07,27,03,14,11.80
2013,07,27,03,15,11.80
2013,07,27,03,16,11.80
2013,07,27,03,17,11.80
2013,07,27,03,18,11.80
2013,07,27,03,19,11.80
2013,07,27,03,20,11.80
2013,07,27,03,21,11.80
2013,07,27,03,22,11.70
2013,07,27,03,23,11.70
2013,07,27,03,24,11.70
2013,07,27,03,25,11.70
2013,07,27,03,26,11.70
2013,07,27,03,27,11.70
2013,07,27,03,28,11.70
2013,07,27,03,29,11.70
2013,07,27,03,30,11.70
2013,07,27,03,31,11.70
2013,07,27,03,32,11.60
2013,07,27,03,33,11.60
2013,07,27,03,34,11.60
2013,07,27,03,35,11.70
2013,07,27,03,36,11.70
2013,07,27,03,37,11.70
2013,07,27,03,38,11.60
2013,07,27,03,39,11.60
2013,07,27,03,40,11.60
2013,07,27,03,41,11.60
2013,07,27,03,42,11.60
2013,07,27,03,43,11.60
2013,07,27,03,44,11.60
2013,07,27,03,45,11.60
2013,07,27,03,46,11.60
2013,07,27,03,47,11.60
2013,07,27,03,48,11.50
2013,07,27,03,49,11.50
2013,07,27,03,50,11.50
2013,07,27,03,51,11.50
2013,07,27,03,52,11.40
2013,07,27,03,53,11.40
2013,07,27,03,54,11.40
2013,07,27,03,55,11.40
2013,07,27,03,56,11.40
2013,07,27,03,57,11.40
2013,07,27,03,58,11.40
2013,07,27,03,59,11.40
2013,07,27,04,00,11.40
2013,07,27,04,01,11.40
2013,07,27,04,02,11.40
2013,07,27,04,03,11.40
2013,07,27,04,04,11.40
2013,07,27,04,05,11.40
2013,07,27,04,06,11.40
2013,07,27,04,07,11.40
2013,07,27,04,08,11.40
2013,07,27,04,09,11.40
2013,07,27,04,10,11.40
2013,07,27,04,11,11.40
2013,07,27,04,12,11.40
2013,07,27,04,13,11.40
2013,07,27,04,14,11.40
2013,07,27,04,15,11.40
2013,07,27,04,16,11.40
2013,07,27,04,17,11.30
2013,07,27,04,18,11.30
2013,07,27,04,19,11.30
2013,07,27,04,20,11.30
2013,07,27,04,21,11.30
2013,07,27,04,22,11.30
2013,07,27,04,23,11.20
2013,07,27,04,24,11.20
2013,07,27,04,25,11.20
2013,07,27,04,26,11.20
2013,07,27,04,27,11.20
2013,07,27,04,28,11.20
2013,07,27,04,29,11.20
2013,07,27,04,30,11.20
2013,07,27,04,31,11.10
2013,07,27,04,32,11.10
2013,07,27,04,33,11.10
2013,07,27,04,34,11.10
2013,07,27,04,35,11.10
2013,07,27,04,36,11.10
2013,07,27,04,37,11.10
2013,07,27,04,38,11.10
2013,07,27,04,39,11.10
2013,07,27,04,40,11.10
2013,07,27,04,41,11.10
2013,07,27,04,42,11.10
2013,07,27,04,43,11.10
2013,07,27,04,44,11.10
2013,07,27,04,45,11.10
2013,07,27,04,46,11.10
2013,07,27,04,47,11.10
2013,07,27,04,48,11.10
2013,07,27,04,49,11.00
2013,07,27,04,50,11.00
2013,07,27,04,51,11.00
2013,07,27,04,52,11.00
2013,07,27,04,53,11.00
2013,07,27,04,54,11.00
2013,07,27,04,55,11.00
2013,07,27,04,56,10.90
2013,07,27,04,57,10.90
2013,07,27,04,58,10.90
2013,07,27,04,59,10.90
2013,07,27,05,00,10.90
2013,07,27,05,01,10.90
2013,07,27,05,02,10.90
2013,07,27,05,03,10.90
2013,07,27,05,04,10.90
2013,07,27,05,05,11.00
2013,07,27,05,06,11.00
2013,07,27,05,07,11.10
2013,07,27,05,08,11.10
2013,07,27,05,09,11.10
2013,07,27,05,10,11.10
2013,07,27,05,11,11.10
2013,07,27,05,12,11.10
2013,07,27,05,13,11.00
2013,07,27,05,14,11.00
2013,07,27,05,15,11.00
2013,07,27,05,16,11.00
2013,07,27,05,17,10.90
2013,07,27,05,18,10.90
2013,07,27,05,19,10.90
2013,07,27,05,20,10.90
2013,07,27,05,21,10.80
2013,07,27,05,22,10.80
2013,07,27,05,23,10.80
2013,07,27,05,24,10.80
2013,07,27,05,25,10.80
2013,07,27,05,26,10.80
2013,07,27,05,27,10.80
2013,07,27,05,28,10.70
2013,07,27,05,29,10.70
2013,07,27,05,30,10.70
2013,07,27,05,31,10.70
2013,07,27,05,32,10.70
2013,07,27,05,33,10.70
2013,07,27,05,34,10.70
2013,07,27,05,35,10.70
2013,07,27,05,36,10.60
2013,07,27,05,37,10.60
2013,07,27,05,38,10.60
2013,07,27,05,39,10.60
2013,07,27,05,40,10.60
2013,07,27,05,41,10.60
2013,07,27,05,42,10.60
2013,07,27,05,43,10.60
2013,07,27,05,44,10.60
2013,07,27,05,45,10.60
2013,07,27,05,46,10.60
2013,07,27,05,47,10.60
2013,07,27,05,48,10.60
2013,07,27,05,49,10.60
2013,07,27,05,50,10.60
2013,07,27,05,51,10.60
2013,07,27,05,52,10.50
2013,07,27,05,53,10.50
2013,07,27,05,54,10.50
2013,07,27,05,55,10.50
2013,07,27,05,56,10.50
2013,07,27,05,57,10.50
2013,07,27,05,58,10.50
2013,07,27,05,59,10.50
2013,07,27,06,00,10.50
2013,07,27,06,01,10.50
2013,07,27,06,02,10.50
2013,07,27,06,03,10.50
2013,07,27,06,04,10.50
2013,07,27,06,05,10.60
2013,07,27,06,06,10.60
2013,07,27,06,07,10.60
2013,07,27,06,08,10.60
2013,07,27,06,09,10.60
2013,07,27,06,10,10.60
2013,07,27,06,11,10.60
2013,07,27,06,12,10.60
2013,07,27,06,13,10.60
2013,07,27,06,14,10.60
2013,07,27,06,15,10.60
2013,07,27,06,16,10.60
2013,07,27,06,17,10.60
2013,07,27,06,18,10.60
2013,07,27,06,19,10.60
2013,07,27,06,20,10.60
2013,07,27,06,21,10.60
2013,07,27,06,22,10.60
2013,07,27,06,23,10.60
2013,07,27,06,24,10.50
2013,07,27,06,25,10.50
2013,07,27,06,26,10.60
2013,07,27,06,27,10.60
2013,07,27,06,28,10.60
2013,07,27,06,29,10.60
2013,07,27,06,30,10.60
2013,07,27,06,31,10.60
2013,07,27,06,32,10.60
2013,07,27,06,33,10.60
2013,07,27,06,34,10.60
2013,07,27,06,35,10.60
2013,07,27,06,36,10.60
2013,07,27,06,37,10.70
2013,07,27,06,38,10.70
2013,07,27,06,39,10.70
2013,07,27,06,40,10.70
2013,07,27,06,41,10.70
2013,07,27,06,42,10.70
2013,07,27,06,43,10.70
2013,07,27,06,44,10.70
2013,07,27,06,45,10.70
2013,07,27,06,46,10.80
2013,07,27,06,47,10.80
2013,07,27,06,48,10.80
2013,07,27,06,49,10.80
2013,07,27,06,50,10.80
2013,07,27,06,51,10.80
2013,07,27,06,52,10.90
2013,07,27,06,53,10.90
2013,07,27,06,54,11.00
2013,07,27,06,55,11.00
2013,07,27,06,56,11.10
2013,07,27,06,57,11.10
2013,07,27,06,58,11.20
2013,07,27,06,59,11.20
2013,07,27,07,00,11.20
2013,07,27,07,01,11.30
2013,07,27,07,02,11.40
2013,07,27,07,03,11.40
2013,07,27,07,04,11.50
2013,07,27,07,05,11.60
2013,07,27,07,06,11.60
2013,07,27,07,07,11.70
2013,07,27,07,08,11.80
2013,07,27,07,09,11.80
2013,07,27,07,10,11.90
2013,07,27,07,11,11.90
2013,07,27,07,12,12.00
2013,07,27,07,13,12.10
2013,07,27,07,14,12.20
2013,07,27,07,15,12.30
2013,07,27,07,16,12.40
2013,07,27,07,17,12.50
2013,07,27,07,18,12.50
2013,07,27,07,19,12.60
2013,07,27,07,20,12.60
2013,07,27,07,21,12.60
2013,07,27,07,22,12.60
2013,07,27,07,23,12.70
2013,07,27,07,24,12.80
2013,07,27,07,25,12.80
2013,07,27,07,26,12.90
2013,07,27,07,27,12.90
2013,07,27,07,28,13.00
2013,07,27,07,29,13.00
2013,07,27,07,30,13.10
2013,07,27,07,31,13.20
2013,07,27,07,32,13.30
2013,07,27,07,33,13.40
2013,07,27,07,34,13.50
2013,07,27,07,35,13.60
2013,07,27,07,36,13.70
2013,07,27,07,37,13.80
2013,07,27,07,38,13.80
2013,07,27,07,39,13.90
2013,07,27,07,40,13.90
2013,07,27,07,41,13.90
2013,07,27,07,42,13.90
2013,07,27,07,43,13.90
2013,07,27,07,44,13.90
2013,07,27,07,45,13.90
2013,07,27,07,46,13.80
2013,07,27,07,47,13.80
2013,07,27,07,48,13.70
2013,07,27,07,49,13.70
2013,07,27,07,50,13.70
2013,07,27,07,51,13.70
2013,07,27,07,52,13.80
2013,07,27,07,53,13.80
2013,07,27,07,54,13.90
2013,07,27,07,55,14.10
2013,07,27,07,56,14.20
2013,07,27,07,57,14.30
2013,07,27,07,58,14.40
2013,07,27,07,59,14.50
2013,07,27,08,00,14.60
2013,07,27,08,01,14.70
2013,07,27,08,02,14.80
2013,07,27,08,03,14.80
2013,07,27,08,04,14.90
2013,07,27,08,05,15.00
2013,07,27,08,06,15.00
2013,07,27,08,07,15.00
2013,07,27,08,08,15.00
2013,07,27,08,09,15.00
2013,07,27,08,10,15.20
2013,07,27,08,11,15.20
2013,07,27,08,12,15.30
2013,07,27,08,13,15.40
2013,07,27,08,14,15.50
2013,07,27,08,15,15.60
2013,07,27,08,16,15.60
2013,07,27,08,17,15.60
2013,07,27,08,18,15.70
2013,07,27,08,19,15.80
2013,07,27,08,20,15.90
2013,07,27,08,21,15.90
2013,07,27,08,22,15.90
2013,07,27,08,23,15.90
2013,07,27,08,24,15.90
2013,07,27,08,25,15.90
2013,07,27,08,26,15.90
2013,07,27,08,27,15.90
2013,07,27,08,28,15.90
2013,07,27,08,29,15.90
2013,07,27,08,30,15.90
2013,07,27,08,31,16.00
2013,07,27,08,32,16.00
2013,07,27,08,33,16.10
2013,07,27,08,34,16.10
2013,07,27,08,35,16.20
2013,07,27,08,36,16.20
2013,07,27,08,37,16.30
2013,07,27,08,38,16.30
2013,07,27,08,39,16.30
2013,07,27,08,40,16.30
2013,07,27,08,41,16.30
2013,07,27,08,42,16.40
2013,07,27,08,43,16.40
2013,07,27,08,44,16.40
2013,07,27,08,45,16.50
2013,07,27,08,46,16.60
2013,07,27,08,47,16.60
2013,07,27,08,48,16.70
2013,07,27,08,49,16.60
2013,07,27,08,50,16.50
2013,07,27,08,51,16.50
2013,07,27,08,52,16.40
2013,07,27,08,53,16.40
2013,07,27,08,54,16.50
2013,07,27,08,55,16.40
2013,07,27,08,56,16.40
2013,07,27,08,57,16.40
2013,07,27,08,58,16.30
2013,07,27,08,59,16.20
2013,07,27,09,00,16.10
2013,07,27,09,01,16.10
2013,07,27,09,02,16.20
2013,07,27,09,03,16.20
2013,07,27,09,04,16.30
2013,07,27,09,05,16.40
2013,07,27,09,06,16.30
2013,07,27,09,07,16.40
2013,07,27,09,08,16.40
2013,07,27,09,09,16.50
2013,07,27,09,10,16.60
2013,07,27,09,11,16.70
2013,07,27,09,12,16.70
2013,07,27,09,13,16.80
2013,07,27,09,14,16.90
2013,07,27,09,15,17.00
2013,07,27,09,16,17.20
2013,07,27,09,17,17.20
2013,07,27,09,18,17.30
2013,07,27,09,19,17.40
2013,07,27,09,20,17.40
2013,07,27,09,21,17.50
2013,07,27,09,22,17.60
2013,07,27,09,23,17.60
2013,07,27,09,24,17.70
2013,07,27,09,25,17.70
2013,07,27,09,26,17.70
2013,07,27,09,27,17.70
2013,07,27,09,28,17.70
2013,07,27,09,29,17.60
2013,07,27,09,30,17.60
2013,07,27,09,31,17.60
2013,07,27,09,32,17.70
2013,07,27,09,33,17.80
2013,07,27,09,34,17.80
2013,07,27,09,35,17.90
2013,07,27,09,36,17.90
2013,07,27,09,37,17.90
2013,07,27,09,38,17.90
2013,07,27,09,39,17.90
2013,07,27,09,40,18.00
2013,07,27,09,41,18.00
2013,07,27,09,42,18.10
2013,07,27,09,43,18.00
2013,07,27,09,44,18.00
2013,07,27,09,45,18.00
2013,07,27,09,46,18.00
2013,07,27,09,47,18.00
2013,07,27,09,48,18.10
2013,07,27,09,49,18.00
2013,07,27,09,50,17.90
2013,07,27,09,51,17.90
2013,07,27,09,52,17.90
2013,07,27,09,53,17.90
2013,07,27,09,54,17.90
2013,07,27,09,55,18.00
2013,07,27,09,56,18.30
2013,07,27,09,57,18.30
2013,07,27,09,58,18.40
2013,07,27,09,59,18.40
2013,07,27,10,00,18.40
2013,07,27,10,01,18.40
2013,07,27,10,02,18.40
2013,07,27,10,03,18.40
2013,07,27,10,04,18.40
2013,07,27,10,05,18.40
2013,07,27,10,06,18.30
2013,07,27,10,07,18.20
2013,07,27,10,08,18.20
2013,07,27,10,09,18.20
2013,07,27,10,10,18.20
2013,07,27,10,11,18.20
2013,07,27,10,12,18.30
2013,07,27,10,13,18.40
2013,07,27,10,14,18.40
2013,07,27,10,15,18.50
2013,07,27,10,16,18.60
2013,07,27,10,17,18.60
2013,07,27,10,18,18.60
2013,07,27,10,19,18.60
2013,07,27,10,20,18.50
2013,07,27,10,21,18.40
2013,07,27,10,22,18.30
2013,07,27,10,23,18.40
2013,07,27,10,24,18.40
2013,07,27,10,25,18.30
2013,07,27,10,26,18.20
2013,07,27,10,27,18.30
2013,07,27,10,28,18.40
2013,07,27,10,29,18.40
2013,07,27,10,30,18.50
2013,07,27,10,31,18.50
2013,07,27,10,32,18.50
2013,07,27,10,33,18.60
2013,07,27,10,34,18.70
2013,07,27,10,35,18.70
2013,07,27,10,36,18.70
2013,07,27,10,37,18.70
2013,07,27,10,38,18.60
2013,07,27,10,39,18.60
2013,07,27,10,40,18.50
2013,07,27,10,41,18.40
2013,07,27,10,42,18.30
2013,07,27,10,43,18.40
2013,07,27,10,44,18.40
2013,07,27,10,45,18.40
2013,07,27,10,46,18.40
2013,07,27,10,47,18.40
2013,07,27,10,48,18.40
2013,07,27,10,49,18.50
2013,07,27,10,50,18.60
2013,07,27,10,51,18.60
2013,07,27,10,52,18.70
2013,07,27,10,53,18.80
2013,07,27,10,54,18.80
2013,07,27,10,55,18.70
2013,07,27,10,56,18.70
2013,07,27,10,57,18.60
2013,07,27,10,58,18.60
2013,07,27,10,59,18.60
2013,07,27,11,00,18.50
2013,07,27,11,01,18.50
2013,07,27,11,02,18.50
2013,07,27,11,03,18.60
2013,07,27,11,04,18.70
2013,07,27,11,05,18.70
2013,07,27,11,06,18.80
2013,07,27,11,07,18.80
2013,07,27,11,08,18.80
2013,07,27,11,09,18.80
2013,07,27,11,10,18.60
2013,07,27,11,11,18.50
2013,07,27,11,12,18.50
2013,07,27,11,13,18.50
2013,07,27,11,14,18.70
2013,07,27,11,15,18.80
2013,07,27,11,16,18.90
2013,07,27,11,17,18.90
2013,07,27,11,18,19.00
2013,07,27,11,19,19.10
2013,07,27,11,20,19.30
2013,07,27,11,21,19.30
2013,07,27,11,22,19.40
2013,07,27,11,23,19.40
2013,07,27,11,24,19.50
2013,07,27,11,25,19.50
2013,07,27,11,26,19.60
2013,07,27,11,27,19.70
2013,07,27,11,28,19.80
2013,07,27,11,29,19.70
2013,07,27,11,30,19.60
2013,07,27,11,31,19.50
2013,07,27,11,32,19.40
2013,07,27,11,33,19.30
2013,07,27,11,34,19.20
2013,07,27,11,35,19.20
2013,07,27,11,36,19.20
2013,07,27,11,37,19.20
2013,07,27,11,38,19.20
2013,07,27,11,39,19.30
2013,07,27,11,40,19.40
2013,07,27,11,41,19.50
2013,07,27,11,42,19.60
2013,07,27,11,43,19.70
2013,07,27,11,44,19.80
2013,07,27,11,45,19.80
2013,07,27,11,46,19.90
2013,07,27,11,47,19.90
2013,07,27,11,48,19.80
2013,07,27,11,49,19.90
2013,07,27,11,50,20.00
2013,07,27,11,51,20.00
2013,07,27,11,52,20.10
2013,07,27,11,53,20.10
2013,07,27,11,54,20.10
2013,07,27,11,55,20.20
2013,07,27,11,56,20.30
2013,07,27,11,57,20.30
2013,07,27,11,58,20.30
2013,07,27,11,59,20.30
2013,07,27,12,00,20.30
2013,07,27,12,01,20.20
2013,07,27,12,02,20.10
2013,07,27,12,03,20.00
2013,07,27,12,04,19.90
2013,07,27,12,05,19.90
2013,07,27,12,06,19.90
2013,07,27,12,07,19.90
2013,07,27,12,08,19.90
2013,07,27,12,09,19.90
2013,07,27,12,10,19.90
2013,07,27,12,11,19.90
2013,07,27,12,12,20.00
2013,07,27,12,13,20.10
2013,07,27,12,14,20.10
2013,07,27,12,15,20.10
2013,07,27,12,16,20.00
2013,07,27,12,17,20.00
2013,07,27,12,18,20.00
2013,07,27,12,19,20.10
2013,07,27,12,20,20.10
2013,07,27,12,21,20.00
2013,07,27,12,22,19.90
2013,07,27,12,23,19.80
2013,07,27,12,24,19.70
2013,07,27,12,25,19.70
2013,07,27,12,26,19.60
2013,07,27,12,27,19.60
2013,07,27,12,28,19.60
2013,07,27,12,29,19.70
2013,07,27,12,30,19.70
2013,07,27,12,31,19.80
2013,07,27,12,32,20.00
2013,07,27,12,33,20.20
2013,07,27,12,34,20.30
2013,07,27,12,35,20.50
2013,07,27,12,36,20.70
2013,07,27,12,37,20.70
2013,07,27,12,38,20.70
2013,07,27,12,39,20.70
2013,07,27,12,40,20.70
2013,07,27,12,41,20.60
2013,07,27,12,42,20.50
2013,07,27,12,43,20.30
2013,07,27,12,44,20.30
2013,07,27,12,45,20.20
2013,07,27,12,46,20.20
2013,07,27,12,47,20.10
2013,07,27,12,48,20.00
2013,07,27,12,49,19.90
2013,07,27,12,50,19.90
2013,07,27,12,51,19.80
2013,07,27,12,52,19.80
2013,07,27,12,53,19.80
2013,07,27,12,54,19.70
2013,07,27,12,55,19.60
2013,07,27,12,56,19.50
2013,07,27,12,57,19.50
2013,07,27,12,58,19.50
2013,07,27,12,59,19.60
2013,07,27,13,00,19.50
2013,07,27,13,01,19.50
2013,07,27,13,02,19.60
2013,07,27,13,03,19.60
2013,07,27,13,04,19.70
2013,07,27,13,05,19.80
2013,07,27,13,06,19.80
2013,07,27,13,07,19.90
2013,07,27,13,08,19.90
2013,07,27,13,09,19.90
2013,07,27,13,10,19.80
2013,07,27,13,11,19.70
2013,07,27,13,12,19.80
2013,07,27,13,13,19.80
2013,07,27,13,14,19.90
2013,07,27,13,15,20.00
2013,07,27,13,16,20.00
2013,07,27,13,17,20.00
2013,07,27,13,18,20.00
2013,07,27,13,19,20.00
2013,07,27,13,20,19.90
2013,07,27,13,21,19.90
2013,07,27,13,22,19.90
2013,07,27,13,23,20.00
2013,07,27,13,24,20.00
2013,07,27,13,25,19.90
2013,07,27,13,26,20.00
2013,07,27,13,27,20.10
2013,07,27,13,28,20.10
2013,07,27,13,29,20.20
2013,07,27,13,30,20.20
2013,07,27,13,31,20.20
2013,07,27,13,32,20.10
2013,07,27,13,33,20.00
2013,07,27,13,34,19.90
2013,07,27,13,35,19.80
2013,07,27,13,36,19.80
2013,07,27,13,37,19.80
2013,07,27,13,38,19.80
2013,07,27,13,39,19.80
2013,07,27,13,40,19.80
2013,07,27,13,41,19.80
2013,07,27,13,42,19.80
2013,07,27,13,43,19.70
2013,07,27,13,44,19.70
2013,07,27,13,45,19.80
2013,07,27,13,46,19.90
2013,07,27,13,47,20.00
2013,07,27,13,48,20.20
2013,07,27,13,49,20.30
2013,07,27,13,50,20.30
2013,07,27,13,51,20.40
2013,07,27,13,52,20.50
2013,07,27,13,53,20.40
2013,07,27,13,54,20.40
2013,07,27,13,55,20.40
2013,07,27,13,56,20.30
2013,07,27,13,57,20.20
2013,07,27,13,58,20.20
2013,07,27,13,59,20.20
2013,07,27,14,00,20.20
2013,07,27,14,01,20.20
2013,07,27,14,02,20.30
2013,07,27,14,03,20.30
2013,07,27,14,04,20.40
2013,07,27,14,05,20.50
2013,07,27,14,06,20.50
2013,07,27,14,07,20.50
2013,07,27,14,08,20.50
2013,07,27,14,09,20.60
2013,07,27,14,10,20.60
2013,07,27,14,11,20.60
2013,07,27,14,12,20.70
2013,07,27,14,13,20.70
2013,07,27,14,14,20.70
2013,07,27,14,15,20.70
2013,07,27,14,16,20.60
2013,07,27,14,17,20.60
2013,07,27,14,18,20.60
2013,07,27,14,19,20.60
2013,07,27,14,20,20.60
2013,07,27,14,21,20.60
2013,07,27,14,22,20.70
2013,07,27,14,23,20.70
2013,07,27,14,24,20.80
2013,07,27,14,25,20.60
2013,07,27,14,26,20.50
2013,07,27,14,27,20.50
2013,07,27,14,28,20.50
2013,07,27,14,29,20.50
2013,07,27,14,30,20.60
2013,07,27,14,31,20.60
2013,07,27,14,32,20.70
2013,07,27,14,33,20.70
2013,07,27,14,34,20.60
2013,07,27,14,35,20.60
2013,07,27,14,36,20.60
2013,07,27,14,37,20.70
2013,07,27,14,38,20.60
2013,07,27,14,39,20.60
2013,07,27,14,40,20.60
2013,07,27,14,41,20.60
2013,07,27,14,42,20.70
2013,07,27,14,43,20.70
2013,07,27,14,44,20.70
2013,07,27,14,45,20.70
2013,07,27,14,46,20.80
2013,07,27,14,47,20.80
2013,07,27,14,48,20.90
2013,07,27,14,49,20.90
2013,07,27,14,50,20.90
2013,07,27,14,51,20.90
2013,07,27,14,52,20.90
2013,07,27,14,53,20.90
2013,07,27,14,54,20.90
2013,07,27,14,55,20.90
2013,07,27,14,56,20.90
2013,07,27,14,57,20.90
2013,07,27,14,58,20.90
2013,07,27,14,59,20.80
2013,07,27,15,00,20.80
2013,07,27,15,01,20.90
2013,07,27,15,02,20.90
2013,07,27,15,03,20.90
2013,07,27,15,04,20.90
2013,07,27,15,05,20.80
2013,07,27,15,06,20.80
2013,07,27,15,07,20.70
2013,07,27,15,08,20.70
2013,07,27,15,09,20.70
2013,07,27,15,10,20.70
2013,07,27,15,11,20.70
2013,07,27,15,12,20.70
2013,07,27,15,13,20.70
2013,07,27,15,14,20.80
2013,07,27,15,15,20.80
2013,07,27,15,16,20.90
2013,07,27,15,17,20.90
2013,07,27,15,18,20.90
2013,07,27,15,19,21.00
2013,07,27,15,20,21.00
2013,07,27,15,21,20.90
2013,07,27,15,22,20.90
2013,07,27,15,23,20.90
2013,07,27,15,24,20.90
2013,07,27,15,25,21.00
2013,07,27,15,26,21.00
2013,07,27,15,27,21.00
2013,07,27,15,28,21.00
2013,07,27,15,29,20.90
2013,07,27,15,30,20.80
2013,07,27,15,31,20.80
2013,07,27,15,32,20.80
2013,07,27,15,33,20.80
2013,07,27,15,34,20.80
2013,07,27,15,35,20.80
2013,07,27,15,36,20.80
2013,07,27,15,37,20.70
2013,07,27,15,38,20.80
2013,07,27,15,39,20.80
2013,07,27,15,40,20.80
2013,07,27,15,41,20.80
2013,07,27,15,42,20.80
2013,07,27,15,43,20.80
2013,07,27,15,44,20.80
2013,07,27,15,45,20.80
2013,07,27,15,46,20.80
2013,07,27,15,47,20.90
2013,07,27,15,48,21.00
2013,07,27,15,49,21.10
2013,07,27,15,50,21.10
2013,07,27,15,51,21.20
2013,07,27,15,52,21.30
2013,07,27,15,53,21.30
2013,07,27,15,54,21.40
2013,07,27,15,55,21.40
2013,07,27,15,56,21.30
2013,07,27,15,57,21.20
2013,07,27,15,58,21.20
2013,07,27,15,59,21.20
2013,07,27,16,00,21.10
2013,07,27,16,01,21.10
2013,07,27,16,02,21.10
2013,07,27,16,03,21.10
2013,07,27,16,04,21.20
2013,07,27,16,05,21.20
2013,07,27,16,06,21.20
2013,07,27,16,07,21.20
2013,07,27,16,08,21.30
2013,07,27,16,09,21.20
2013,07,27,16,10,21.20
2013,07,27,16,11,21.20
2013,07,27,16,12,21.30
2013,07,27,16,13,21.30
2013,07,27,16,14,21.30
2013,07,27,16,15,21.30
2013,07,27,16,16,21.40
2013,07,27,16,17,21.50
2013,07,27,16,18,21.50
2013,07,27,16,19,21.60
2013,07,27,16,20,21.60
2013,07,27,16,21,21.70
2013,07,27,16,22,21.70
2013,07,27,16,23,21.80
2013,07,27,16,24,21.80
2013,07,27,16,25,21.90
2013,07,27,16,26,21.90
2013,07,27,16,27,21.90
2013,07,27,16,28,22.00
2013,07,27,16,29,22.00
2013,07,27,16,30,22.10
2013,07,27,16,31,22.20
2013,07,27,16,32,22.20
2013,07,27,16,33,22.30
2013,07,27,16,34,22.30
2013,07,27,16,35,22.30
2013,07,27,16,36,22.30
2013,07,27,16,37,22.20
2013,07,27,16,38,22.20
2013,07,27,16,39,22.20
2013,07,27,16,40,22.10
2013,07,27,16,41,22.10
2013,07,27,16,42,22.10
2013,07,27,16,43,22.10
2013,07,27,16,44,22.10
2013,07,27,16,45,22.00
2013,07,27,16,46,22.10
2013,07,27,16,47,22.10
2013,07,27,16,48,22.20
2013,07,27,16,49,22.20
2013,07,27,16,50,22.30
2013,07,27,16,51,22.30
2013,07,27,16,52,22.20
2013,07,27,16,53,22.10
2013,07,27,16,54,22.10
2013,07,27,16,55,22.10
2013,07,27,16,56,22.10
2013,07,27,16,57,22.10
2013,07,27,16,58,22.10
2013,07,27,16,59,22.10
2013,07,27,17,00,22.10
2013,07,27,17,01,22.10
2013,07,27,17,02,22.10
2013,07,27,17,03,22.20
2013,07,27,17,04,22.20
2013,07,27,17,05,22.20
2013,07,27,17,06,22.20
2013,07,27,17,07,22.10
2013,07,27,17,08,22.10
2013,07,27,17,09,22.10
2013,07,27,17,10,22.10
2013,07,27,17,11,22.10
2013,07,27,17,12,22.20
2013,07,27,17,13,22.20
2013,07,27,17,14,22.20
2013,07,27,17,15,22.30
2013,07,27,17,16,22.30
2013,07,27,17,17,22.30
2013,07,27,17,18,22.40
2013,07,27,17,19,22.40